time,valid candidates,not considered,total,median age,backlog
1714526302000,0,301,301,68,25368
1714527616000,0,301,301,68,25408
1714528747000,0,301,301,68,25409
1714531154000,0,301,301,68,25410
1714533188000,0,301,301,68,25416
1714534715000,0,301,301,68,25417
1714536282000,0,301,301,68,25417
1714538095000,0,301,301,68,25417
1714539620000,0,301,301,68,25419
1714541323000,0,301,301,68,25419
1714543007000,0,301,301,68,25419
1714544683000,0,302,302,68,25422
1714546408000,0,302,302,68,25439
1714547734000,0,302,302,68,25444
1714549100000,0,302,302,68,25445
1714551440000,0,302,302,68,25446
1714552948000,0,302,302,68,25446
1714555561000,0,302,302,68,25450
1714556962000,0,302,302,68,25451
1714558420000,0,302,302,68,25451
1714559953000,0,302,302,68,25461
1714562692000,0,302,302,68,25467
1714564828000,0,302,302,68,25483
1714566919000,0,302,302,68,25490
1714569441000,0,302,302,68,25506
1714572112000,0,302,302,68,25527
1714574607000,0,302,302,68,25529
1714577168000,0,302,302,68,25531
1714579420000,2,300,302,68,25532
1714581276000,2,300,302,68,25536
1714583097000,31,268,299,68,25543
1714585314000,30,268,298,68,25544
1714586730000,30,268,298,68,25553
1714590134000,8,268,276,72,25343
1714591972000,8,268,276,72,25359
1714594718000,8,268,276,72,25370
1714597426000,4,273,277,72,25267
1714599326000,6,271,277,72,25268
1714600895000,7,270,277,72,25269
1714602874000,6,270,276,72,25277
1714605256000,4,269,273,72,25279
1714609771000,3,269,272,72,25292
1714615171000,4,281,285,73,25330
1714617490000,7,295,302,68,25329
1714619451000,11,300,311,67,25335
1714621359000,15,294,309,67,25336
1714623204000,8,294,302,68,25336
1714624990000,8,294,302,68,25336
1714628129000,2,294,296,69,25336
1714629844000,2,295,297,69,25336
1714632509000,3,296,299,68,25356
1714634854000,9,290,299,68,25361
1714636862000,7,295,302,68,25341
1714639015000,3,309,312,66,25287
1714642284000,11,314,325,64,25291
1714644405000,12,313,325,64,25292
1714646633000,4,314,318,65,25300
1714648401000,3,314,317,65,25302
1714649750000,7,310,317,65,25305
1714651408000,9,324,333,63,25223
1714653123000,9,324,333,63,25229
1714656493000,8,349,357,58,25244
1714658348000,7,357,364,58,25246
1714660382000,16,355,371,57,25266
1714663035000,15,353,368,58,25267
1714665839000,10,352,362,58,25269
1714704415000,10,383,393,32,25396
1714707768000,37,2058,2095,0,23094
1714817841000,550,3084,3634,1,21559
1714822216000,559,3075,3634,1,21571
1714827135000,6,3080,3086,1,21510
1714830583000,6,3080,3086,1,21523
1714835477000,20,3062,3082,1,21543
1714838913000,30,3052,3082,1,21545
1714843006000,23,3041,3064,1,21548
1714846945000,33,3021,3054,1,21557
1714851936000,47,3026,3073,1,21580
1714858707000,52,2976,3028,1,21614
1714862513000,80,2947,3027,1,21626
1714865955000,43,2934,2977,1,21632
1714869480000,33,2916,2949,1,21634
1714873092000,36,2946,2982,1,21668
1714876235000,33,2935,2968,1,21671
1714879837000,34,2919,2953,1,21671
1714883593000,33,2915,2948,2,21678
1714890570000,15,2913,2928,2,21678
1714895602000,22,2919,2941,2,21682
1714901658000,24,2909,2933,2,21687
1714905162000,38,2897,2935,2,21691
1714908964000,46,2874,2920,2,21698
1714913404000,43,2857,2900,2,21712
1714918606000,35,2849,2884,2,21730
1714925969000,25,2829,2854,2,21751
1714929637000,45,2810,2855,2,21753
1714933091000,47,2788,2835,2,21765
1714940801000,30,2816,2846,2,21798
1714944665000,33,2813,2846,2,21819
1714948656000,16,2805,2821,2,21829
1714952509000,26,2793,2819,2,21838
1714956031000,25,2841,2866,2,21828
1714962472000,24,2830,2854,2,21861
1714969860000,31,2819,2850,3,21882
1714974925000,28,2812,2840,3,21882
1714979577000,20,2819,2839,3,21896
1714983065000,95,2737,2832,3,21902
1714988250000,153,2672,2825,3,21912
1714991981000,160,2581,2741,3,21916
1714995395000,148,2532,2680,3,21926
1714998428000,82,2510,2592,3,21938
1715001859000,97,2456,2553,3,21956
1715006876000,143,2316,2459,3,21990
1715011218000,192,2271,2463,3,22000
1715015174000,154,2174,2328,3,22003
1715018951000,147,2133,2280,3,22015
1715024091000,83,2121,2204,3,22038
1715027576000,92,2073,2165,3,22062
1715032308000,97,2046,2143,3,22077
1715035991000,65,2030,2095,3,22081
1715038765000,50,2006,2056,3,22083
1715042082000,72,1986,2058,3,22085
1715046134000,49,1995,2044,3,22118
1715049347000,30,1992,2022,3,22124
1715056287000,15,1985,2000,3,22696
1715059310000,26,1978,2004,4,23531
1715061918000,29,1971,2000,4,23524
1715064960000,26,1977,2003,4,23479
1715070612000,22,1968,1990,4,23500
1715077203000,29,1956,1985,4,23506
1715081874000,29,1950,1979,4,23516
1715084707000,16,1949,1965,4,23497
1715088097000,21,1956,1977,4,23507
1715093721000,20,1956,1976,4,23540
1715097776000,22,1951,1973,4,23540
1715102105000,19,1945,1964,4,23535
1715105296000,17,1941,1958,4,23537
1715109863000,22,1949,1971,4,23375
1715113095000,36,1931,1967,4,23382
1715118960000,27,1928,1955,4,23392
1715122038000,11,1931,1942,4,23397
1715124800000,11,1928,1939,4,23398
1715127349000,12,1925,1937,4,23395
1715130150000,11,1954,1965,4,23418
1715132827000,16,1946,1962,4,23426
1715135357000,18,1943,1961,4,23430
1715137918000,14,1938,1952,4,23499
1715140918000,13,1937,1950,4,24009
1715144897000,19,1925,1944,5,24734
1715148329000,24,1920,1944,5,24730
1715152137000,15,1918,1933,5,24722
1715155383000,17,1922,1939,5,24494
1715158589000,22,1918,1940,5,24492
1715161838000,13,1916,1929,5,24491
1715165162000,10,1914,1924,5,24486
1715168300000,15,1920,1935,5,24481
1715171748000,20,1914,1934,5,24492
1715175806000,25,1908,1933,5,24510
1715306348000,87,1987,2074,6,26136
1715311897000,93,1997,2090,6,26264
1715315083000,11,1998,2009,6,26628
1715318744000,7,1995,2002,7,27288
1715326534000,7,2016,2023,7,27331
1715338166000,16,2000,2016,7,25337
1715342901000,17,1996,2013,7,25352
1715351124000,6,2008,2014,7,25409
1715357947000,6,2009,2015,7,25445
1715364511000,4,2005,2009,7,25459
1715368021000,4,2009,2013,7,25473
1715372993000,13,2018,2031,7,25559
1715378812000,4,2017,2021,7,25590
1715382364000,6,2020,2026,7,25610
1715385359000,12,2019,2031,7,25612
1715388957000,11,2012,2023,7,25662
1715395509000,8,2034,2042,7,25713
1715400192000,8,2033,2041,7,26304
1715404494000,6,2027,2033,8,26953
1715408499000,6,2024,2030,8,26957
1715416521000,16,2037,2053,8,27011
1715423647000,9,2033,2042,8,26997
1715429345000,50,1994,2044,8,27012
1715436646000,18,1990,2008,8,26865
1715440508000,27,1996,2023,8,26895
1715444143000,30,1986,2016,8,26856
1715447812000,22,1982,2004,8,26814
1715451329000,7,1977,1984,8,26806
1715455082000,8,1999,2007,8,26846
1715467751000,31,1969,2000,8,26963
1715471494000,37,1963,2000,8,26982
1715475566000,14,1961,1975,8,26950
1715483647000,44,1981,2025,8,26473
1715487888000,46,1981,2027,8,26958
1715491747000,14,1974,1988,9,27424
1715498263000,16,1968,1984,9,27411
1715502241000,17,1975,1992,9,27456
1715506419000,13,1971,1984,9,27426
1715510777000,11,1968,1979,9,27435
1715514610000,9,1969,1978,9,27442
1715523824000,14,1965,1979,9,27524
1715529055000,14,1970,1984,9,27559
1715535467000,13,1967,1980,9,27568
1715539617000,13,1969,1982,9,27578
1715543938000,14,1976,1990,9,27651
1715547503000,14,1973,1987,9,27671
1715551194000,5,1975,1980,9,27669
1715555007000,5,1978,1983,9,27683
1715559373000,5,1975,1980,9,27695
1715567887000,14,1989,2003,9,27814
1715572146000,21,1981,2002,9,27877
1715576223000,14,1979,1993,10,28867
1715580063000,8,1977,1985,10,28828
1715586029000,10,1976,1986,10,28867
1715592469000,18,1983,2001,10,28866
1715599945000,16,1970,1986,10,28808
1715604341000,19,1972,1991,10,28828
1715612168000,20,1970,1990,10,28861
1715616254000,25,1957,1982,10,28866
1715621039000,16,1957,1973,10,28823
1715625737000,11,1958,1969,10,28886
1715631633000,13,1965,1978,10,28979
1715636383000,20,1973,1993,10,28769
1715642325000,20,1966,1986,10,28796
1715646998000,15,1962,1977,10,28777
1715652234000,18,1981,1999,10,28856
1715660562000,14,1966,1980,10,29362
1715669496000,24,1961,1985,11,29837
1715674949000,40,2016,2056,11,29877
1715680259000,37,2016,2053,11,29861
1715685647000,28,2015,2043,11,29325
1715691686000,29,2037,2066,11,29186
1715697985000,28,2024,2052,11,28504
1715702725000,33,2021,2054,11,28490
1715707612000,35,2002,2037,11,28458
1715713428000,27,1995,2022,11,28470
1715719263000,33,2003,2036,11,28399
1715724238000,42,1990,2032,11,28392
1715729021000,52,1947,1999,11,28341
1715733375000,65,1949,2014,11,28270
1715738893000,47,1953,2000,11,28129
1715743814000,31,1944,1975,11,28203
1715748162000,19,1939,1958,11,28605
1715753436000,19,1930,1949,12,28982
1715759885000,18,1949,1967,12,28965
1715782052000,8,3025,3033,4,27743
1715786752000,10,3052,3062,4,27789
1715792962000,11,3058,3069,4,27810
1715796860000,9,3116,3125,3,27892
1715805053000,7,3116,3123,3,27971
1715809319000,8,3133,3141,3,28000
1715815591000,8,3129,3137,3,28031
1715819579000,8,3124,3132,3,28032
1715823598000,15,3152,3167,3,28011
1715829789000,28,3151,3179,3,28143
1715833670000,20,3148,3168,3,28537
1715838530000,9,3145,3154,3,28864
1715843237000,9,3142,3151,3,28887
1715848859000,8,3154,3162,3,28927
1715854043000,11,3155,3166,3,28932
1715859026000,17,3142,3159,3,28934
1715863721000,32,3127,3159,3,28936
1715867976000,28,3152,3180,3,28935
1715872640000,19,3143,3162,3,28843
1715876733000,22,3142,3164,3,28863
1715880810000,24,3161,3185,3,28863
1715884278000,50,3119,3169,3,28965
1715889583000,65,3120,3185,3,29050
1715896258000,35,3082,3117,3,28825
1715900336000,25,3121,3146,3,28839
1715904564000,20,3055,3075,3,28848
1715908671000,18,3077,3095,3,28897
1715912929000,40,3032,3072,3,28989
1715917140000,39,3055,3094,3,29036
1715921388000,17,3112,3129,3,29310
1715925388000,18,3056,3074,3,29662
1715929827000,19,3142,3161,3,29663
1715934922000,23,3085,3108,3,29723
1715938608000,34,3060,3094,3,29731
1715942760000,36,3053,3089,3,29735
1715947058000,54,3062,3116,3,29693
1715950692000,83,2950,3033,3,29644
1715954908000,94,3038,3132,3,29423
1715958223000,109,2977,3086,3,29313
1715961601000,113,2886,2999,3,29139
1715965456000,127,2853,2980,3,28983
1715970412000,172,2781,2953,3,28955
1715973832000,122,2826,2948,3,28985
1715977146000,113,2728,2841,3,28832
1715980378000,124,2702,2826,3,28759
1715984005000,59,2692,2751,3,28534
1715987771000,34,2682,2716,3,28419
1715991119000,27,2690,2717,3,28404
1715994645000,27,2687,2714,3,28399
1715997870000,32,2705,2737,3,28450
1716001115000,34,2685,2719,3,28496
1716004664000,34,2671,2705,3,28868
1716008873000,30,2676,2706,3,29188
1716011803000,25,2714,2739,3,29177
1716014858000,24,2696,2720,3,29142
1716018253000,26,2669,2695,3,29177
1716021353000,32,2716,2748,3,29226
1716024230000,31,2689,2720,3,29237
1716027024000,26,2718,2744,3,29228
1716029842000,26,2698,2724,3,29233
1716032639000,24,2690,2714,3,29240
1716035971000,88,2624,2712,4,29285
1716038825000,96,2655,2751,4,29319
1716041634000,33,2605,2638,3,29018
1716044592000,33,2649,2682,3,29047
1716047314000,23,2652,2675,3,29035
1716050004000,22,2619,2641,3,29044
1716052705000,22,2623,2645,3,29052
1716055638000,22,2621,2643,3,29126
1716058630000,25,2682,2707,3,29133
1716061523000,38,2637,2675,3,29211
1716064456000,41,2663,2704,3,29249
1716067251000,28,2660,2688,4,29260
1716070186000,22,2663,2685,4,29300
1716073185000,22,2641,2663,4,29317
1716075844000,22,2665,2687,4,29317
1716078945000,22,2629,2651,4,29319
1716081936000,23,2643,2666,3,29369
1716085664000,31,2668,2699,4,29428
1716088428000,31,2664,2695,4,29462
1716091328000,24,2663,2687,4,29820
1716094242000,29,2659,2688,4,30133
1716097031000,29,2611,2640,4,30133
1716099749000,28,2633,2661,4,30133
1716102495000,22,2619,2641,4,30161
1716105259000,26,2660,2686,4,30198
1716108792000,32,2655,2687,4,30229
1716112909000,120,2563,2683,4,30241
1716115969000,154,2523,2677,4,30435
1716118987000,97,2489,2586,4,29781
1716122209000,62,2490,2552,4,29415
1716125528000,52,2463,2515,4,29381
1716128157000,151,2358,2509,4,29604
1716130706000,154,2354,2508,4,29631
1716133379000,143,2335,2478,4,29502
1716136060000,100,2316,2416,4,28625
1716138893000,86,2316,2402,4,28494
1716141890000,79,2303,2382,4,28517
1716144804000,86,2313,2399,4,28558
1716148471000,96,2291,2387,4,28504
1716155188000,68,2289,2357,4,27857
1716158091000,68,2288,2356,4,27864
1716160948000,68,2287,2355,4,27874
1716163936000,66,2287,2353,4,27867
1716167958000,73,2299,2372,4,27755
1716171320000,81,2290,2371,4,27787
1716175095000,88,2283,2371,4,27819
1716178123000,73,2283,2356,4,28015
1716181144000,68,2280,2348,4,28245
1716184195000,69,2279,2348,4,28245
1716187155000,67,2295,2362,4,28219
1716191469000,69,2293,2362,4,28249
1716195104000,144,2216,2360,4,28281
1716198302000,189,2170,2359,4,28287
1716201436000,1176,1108,2284,5,27827
1716204756000,1140,1097,2237,5,27525
1716207797000,1124,1093,2217,5,27303
1716212232000,1127,1086,2213,5,27501
1716215407000,1158,1070,2228,5,27727
1716218643000,1168,1055,2223,5,27690
1716221896000,1155,1050,2205,5,27533
1716225094000,1153,1048,2201,5,27523
1716228512000,1230,971,2201,5,27636
1716232062000,1234,979,2213,5,27650
1716235536000,1181,959,2140,5,26946
1716238769000,1182,953,2135,5,26955
1716242060000,1170,947,2117,5,26827
1716244669000,1170,949,2119,5,26834
1716249084000,1170,945,2115,5,26814
1716252949000,1183,929,2112,5,26765
1716255939000,1195,933,2128,5,26805
1716258910000,1137,930,2067,5,26321
1716261825000,1126,928,2054,5,26223
1716264703000,1124,927,2051,5,26327
1716267972000,1123,926,2049,5,26463
1716270770000,1124,924,2048,5,26463
1716273226000,1126,922,2048,5,26464
1716277705000,1125,939,2064,5,26402
1716280469000,1125,935,2060,5,26381
1716282789000,1137,923,2060,5,26386
1716285124000,1143,918,2061,5,26392
1716287584000,1141,916,2057,5,26568
1716289847000,1144,910,2054,6,26867
1716293792000,1140,915,2055,6,26852
1716298329000,1134,936,2070,6,27447
1716300702000,1142,928,2070,6,27487
1716303882000,1149,921,2070,6,27554
1716306817000,1148,914,2062,6,27460
1716309294000,1139,914,2053,6,27411
1716311538000,1141,912,2053,6,27424
1716313837000,1148,900,2048,6,27430
